Location: Spruce Knob
(38.6995°N, 79.5330°W)
Time: 00:00:43
(UTC-04:00)

TIGRISAT - Visible Passes

Search period start: 29 March 2023 00:00
Search period end: 08 April 2023 00:00
Orbit: 601 x 682 km, 97.7° (Epoch: 28 March)

Date Brightness Start Highest point End Pass type
(mag) Time Alt. Az. Time Alt. Az. Time Alt. Az.
29 Mar ? 05:58:00 10° SSE 06:02:17 61° ENE 06:06:43 10° N visible
30 Mar ? 04:49:20 10° ENE 04:50:20 11° ENE 04:51:20 10° NE visible
30 Mar ? 06:21:52 10° S 06:26:13 72° W 06:30:43 10° NNW visible
31 Mar ? 05:10:53 10° ESE 05:13:59 19° ENE 05:17:08 10° NNE visible
31 Mar ? 20:15:10 10° NNW 20:18:04 17° WNW 20:20:57 10° WSW visible
01 Apr ? 05:33:46 10° SE 05:37:42 33° ENE 05:41:45 10° N visible
02 Apr ? 05:57:11 10° SSE 06:01:32 61° ENE 06:06:01 10° N visible
03 Apr ? 04:48:26 10° ENE 04:49:33 11° ENE 04:50:42 10° NE visible
03 Apr ? 06:21:02 10° S 06:25:26 72° WSW 06:29:59 10° NNW visible
04 Apr ? 05:10:02 10° ESE 05:13:11 19° ENE 05:16:23 10° NNE visible
04 Apr ? 20:14:24 10° NNW 20:17:17 17° WNW 20:20:09 10° WSW visible
05 Apr ? 05:32:55 10° SE 05:36:54 33° ENE 05:41:00 10° N visible
06 Apr ? 05:56:18 10° SSE 06:00:42 61° ENE 06:05:13 10° N visible
07 Apr ? 04:47:29 10° ENE 04:48:42 11° ENE 04:49:56 10° NE visible
07 Apr ? 06:20:08 10° S 06:24:35 73° W 06:29:10 10° NNW visible
